Tajin Airport
MMPA : rendu visible

Aérodrome :











RETROUVEZ-NOUS SUR...

 
LOGIN :

S'inscrire | Disclaimer

   EN    FR    IT 

 









Légende :    VFR   VFR Marginal   IFR   IFR Intensif   IFR Très Intensif
Visi : 
Plafond : 
>= 8 km
>= 3000ft
5 à 8 km
1000 à 3000 ft
1500m à 5 km
500 à 1000 ft
800 à 1500m
200 à 500 ft
< 800m
< 200 ft
Symboles :   Orages  Brouillard  Fortes neiges  Fortes précipitations  Vent > 20 kt






- Altitude de l'aérodrome : 497 ft
- Code IATA : PAZ


MMPA - Tajin

METARs EXPIRÉS :
  • 242343Z 09008KT 5SM SKC 31/23 A2997 RMK SLP044 52030 952 HZY ISOL CU

TAF TAF MMPA
Valide du 24 à 18h jusqu'au 25 à 18h UTC


241717Z 2418/2518 05005KT 5SM HZ BKN018
TEMPO 2422/2502 4SM SHRA SCT015CB
FM250200 29005KT 4SM BR HZ BKN015
FM251200 30005KT 4SM HZ BKN018
FIR MMFR / Amérique du Nord



MET'MAP, la Météo Aéronautique d'un coup d'oeil ! - Copyright ORBIFLY Décembre 2007 - Disclaimer

ORBIFLY MET'MAP TEAM :

Programmation & Développement : Alexandra Zaïnal
Sur une idée originale de : Baudouin d'Aumeries
Assistance à la programmation : Marc-Olivier Méhu
Soutien technique & logistique : Manuel Goepfert

Contact : metmap@orbifly.com




SOURCES & CREDITS :

   NOAA       Earth
Advisory